Location: Bothell
(47.7630°N, 122.2040°W)
Time: 21:19:52
(UTC-08:00)

Amateur Radio Satellites - All Passes

Search period start: 27 February 2015 20:49
Search period end: 28 February 2015 20:49
Location: Bothell, 47.7630°N, 122.2040°W

Satellite Date Start Highest point End Downlink Frequencies (MHz)
Time Altitude Azimuth
HUMSAT D 27 Feb 20:54:12 20:57:41 26° 67° (ENE) 21:01:14 437.325/437.525
CUTE 1.7 + AOD 2 27 Feb 20:58:45 21:02:23 27° 266° (W) 21:05:59 437.475
PCSat 27 Feb 21:05:24 21:10:22 39° 114° (ESE) 21:15:25 145.827
CUBEBUG 2 27 Feb 21:06:15 21:10:48 88° 76° (ENE) 21:15:14 437.445
PHONESAT 2.4 27 Feb 21:17:27 21:20:28 24° 173° (S) 21:23:28 2401.200-2431.200
Oscar 11 27 Feb 21:22:35 21:26:46 47° 262° (W) 21:30:56 145.826/435.025
50 SAT 27 Feb 21:24:49 21:28:30 37° 70° (ENE) 21:32:12 437.505
AISAT 27 Feb 21:29:12 21:33:32 48° 70° (ENE) 21:37:53 437.250
DOVE 4 27 Feb 21:29:39 21:33:49 23° 269° (W) 21:37:45 437.250
VERMONT LUNAR 27 Feb 21:36:32 21:39:25 24° 184° (S) 21:42:18 437.305
VELOX 1 27 Feb 21:40:12 21:44:37 60° 72° (ENE) 21:49:04 145.980
DX 1 27 Feb 21:40:55 21:45:15 57° 259° (W) 21:49:38 434.975-435.025
ESTCUBE 1 27 Feb 21:43:57 21:47:59 33° 67° (ENE) 21:52:06 437.505/2401.250
CUBEBUG 1 27 Feb 21:44:32 21:48:25 31° 67° (ENE) 21:52:22 437.445
DELFI C3 27 Feb 21:46:15 21:49:53 31° 264° (W) 21:53:31 145.870
AIST 2 27 Feb 21:47:35 21:49:40 13° 337° (NNW) 21:51:41 435.215
UNISAT 6 27 Feb 21:57:09 22:00:14 20° 91° (E) 22:03:26 437.425
AAUSAT CUBESAT 2 27 Feb 21:57:23 21:58:53 11° 274° (W) 22:00:10 437.432
POLYITAN 1 27 Feb 21:58:23 21:59:41 11° 86° (E) 22:01:13 437.675
POPSAT HIP 1 27 Feb 22:00:25 22:01:56 12° 86° (E) 22:03:38 437.405
FUNcube-1 27 Feb 22:00:41 22:04:48 38° 263° (W) 22:08:50 145.935
ZACube-1 27 Feb 22:00:44 22:04:52 37° 263° (W) 22:08:53 437.345
CINEMA 3 27 Feb 22:02:25 22:05:49 18° 270° (W) 22:09:01 145.822/145.860
HO-68 27 Feb 22:12:25 22:15:41 13° 278° (W) 22:18:30 435.675
UWE-3 27 Feb 22:13:12 22:16:56 25° 267° (W) 22:20:31 435.000/436.395/437.385
UKube-1 27 Feb 22:15:24 22:19:11 28° 265° (W) 22:22:56 .
TIGRISAT 27 Feb 22:23:18 22:27:12 34° 96° (E) 22:31:08 435.000
NANOSAT C BR1 27 Feb 22:23:36 22:26:45 21° 91° (E) 22:30:00 145.865
HUMSAT D 27 Feb 22:29:33 22:33:25 33° 264° (W) 22:37:12 437.325/437.525
SPROUT 27 Feb 22:29:51 22:33:21 24° 65° (ENE) 22:36:54 437.525
ANTELSAT 27 Feb 22:34:56 22:39:04 46° 99° (E) 22:43:14 437.575/2403.000
GONETS M04 27 Feb 22:38:25 22:47:08 86° 280° (W) 22:55:54
RS-15 27 Feb 22:40:29 22:49:09 30° 106° (ESE) 22:58:13 29.354- 29.394
TISAT 1 27 Feb 22:44:53 22:48:39 31° 67° (ENE) 22:52:28 437.305
CUBEBUG 2 27 Feb 22:46:49 22:48:12 11° 275° (W) 22:49:20 437.445
PCSat 27 Feb 22:48:40 22:53:49 41° 314° (NW) 22:58:58 145.827
QB50P1 27 Feb 22:55:00 22:59:03 42° 98° (E) 23:03:05 145.935-145.965
PHONESAT 2.4 27 Feb 22:55:28 22:58:22 22° 190° (S) 23:01:14 2401.200-2431.200
QB50P2 27 Feb 22:57:39 23:01:46 46° 99° (E) 23:05:51 145.880/145.840
50 SAT 27 Feb 23:00:34 23:03:41 21° 268° (W) 23:06:43 437.505
AISAT 27 Feb 23:06:59 23:10:26 21° 269° (W) 23:13:47 437.250
ITUPSAT 1 27 Feb 23:07:07 23:08:56 12° 56° (NE) 23:10:57 437.325
DANDE 27 Feb 23:09:31 23:13:32 17° 90° (E) 23:17:15 436.750
VERMONT LUNAR 27 Feb 23:14:45 23:16:42 14° 200° (SSW) 23:18:37 437.305
DUCHIFAT 1 27 Feb 23:15:33 23:19:47 69° 102° (ESE) 23:23:59 145.980
VELOX 1 27 Feb 23:18:40 23:21:39 17° 271° (W) 23:24:29 145.980
CUBEBUG 1 27 Feb 23:20:46 23:24:47 32° 265° (W) 23:28:46 437.445
ESTCUBE 1 27 Feb 23:20:54 23:24:55 30° 266° (W) 23:28:54 437.505/2401.250
BUGSAT 1 27 Feb 23:22:03 23:26:14 62° 101° (E) 23:30:20 437.445
POLYITAN 1 27 Feb 23:32:02 23:36:17 78° 285° (WNW) 23:40:30 437.675
UNISAT 6 27 Feb 23:33:13 23:37:19 45° 290° (WNW) 23:41:26 437.425
POPSAT HIP 1 27 Feb 23:34:12 23:38:28 76° 286° (WNW) 23:42:40 437.405
CUSAT 1 27 Feb 23:55:43 00:01:48 44° 97° (E) 00:06:32 437.405
NANOSAT C BR1 27 Feb 23:58:50 00:02:52 42° 290° (WNW) 00:06:51 145.865
TIGRISAT 28 Feb 00:00:17 00:03:53 26° 294° (WNW) 00:07:26 435.000
SPROUT 28 Feb 00:05:11 00:09:16 39° 263° (W) 00:13:22 437.525
SWISSCUBE 28 Feb 00:07:04 00:11:32 41° 68° (ENE) 00:16:04 437.505
ANTELSAT 28 Feb 00:12:24 00:15:38 21° 296° (WNW) 00:18:47 437.575/2403.000
BEESAT 28 Feb 00:16:13 00:20:45 46° 69° (ENE) 00:25:21 436.000
TISAT 1 28 Feb 00:20:41 00:24:29 29° 265° (W) 00:28:14 437.305
Oscar 19 28 Feb 00:25:25 00:28:03 14° 86° (E) 00:30:56 437.125/150
QB50P1 28 Feb 00:31:25 00:34:44 22° 296° (WNW) 00:37:56 145.935-145.965
QB50P2 28 Feb 00:34:13 00:37:25 20° 296° (WNW) 00:40:30 145.880/145.840
PHONESAT 2.4 28 Feb 00:35:36 00:36:05 10° 206° (SSW) 00:36:28 2401.200-2431.200
PCSat 28 Feb 00:35:57 00:38:47 14° 338° (NNW) 00:41:31 145.827
GONETS M04 28 Feb 00:38:55 00:45:33 22° 305° (NW) 00:51:53
ITUPSAT 1 28 Feb 00:41:20 00:46:06 77° 73° (ENE) 00:50:56 437.325
YUBILEINY 28 Feb 00:42:51 00:44:22 11° 40° (NE) 00:46:25 435.215
RS-15 28 Feb 00:49:26 01:00:23 85° 309° (NW) 01:11:35 29.354- 29.394
DANDE 28 Feb 00:49:39 00:56:43 84° 280° (W) 01:02:01 436.750
DUCHIFAT 1 28 Feb 00:52:44 00:55:11 15° 299° (WNW) 00:57:27 145.980
BUGSAT 1 28 Feb 00:58:40 01:01:18 16° 299° (WNW) 01:03:46 437.445
BEESAT 3 28 Feb 01:05:44 01:08:59 22° 35° (NE) 01:12:15 437.485
AIST 2 28 Feb 01:08:28 01:10:42 14° 25° (NNE) 01:13:00 435.215
POLYITAN 1 28 Feb 01:10:46 01:11:33 10° 303° (WNW) 01:12:07 437.675
KKS-1 28 Feb 01:17:40 01:21:49 38° 68° (ENE) 01:26:00 437.445
BEESAT 2 28 Feb 01:27:39 01:31:15 27° 38° (NE) 01:34:50 435.950
STARS 28 Feb 01:31:16 01:35:17 35° 68° (ENE) 01:39:20 437.465
SO-50 28 Feb 01:37:29 01:40:34 18° 112° (ESE) 01:43:53 436.795
CUSAT 1 28 Feb 01:39:20 01:44:45 29° 289° (WNW) 01:48:59 437.405
SWISSCUBE 28 Feb 01:45:31 01:49:35 26° 267° (W) 01:53:36 437.505
ITAMSAT 1 28 Feb 01:54:49 01:59:27 32° 95° (E) 02:04:07 435.822/435.867
BEESAT 28 Feb 01:55:00 01:58:52 24° 268° (W) 02:02:40 436.000
Oscar 19 28 Feb 02:03:01 02:08:11 83° 286° (WNW) 02:13:19 437.125/150
ITUPSAT 1 28 Feb 02:21:58 02:24:40 14° 273° (W) 02:27:10 437.325
YUBILEINY 28 Feb 02:36:10 02:44:27 43° 68° (ENE) 02:52:48 435.215
DANDE 28 Feb 02:36:49 02:40:32 15° 297° (WNW) 02:43:33 436.750
BEESAT 3 28 Feb 02:43:22 02:47:30 67° 236° (WSW) 02:51:34 437.485
AIST 2 28 Feb 02:46:06 02:50:19 51° 47° (NE) 02:54:28 435.215
Gurwin Techsat 1B 28 Feb 02:48:34 02:53:54 70° 102° (ESE) 02:59:13 435.225
KKS-1 28 Feb 02:54:49 02:58:36 25° 267° (W) 03:02:20 437.445
M-CUBED/EXP-1 PRIME 28 Feb 02:56:50 03:00:02 49° 67° (ENE) 03:03:22 437.505
AUBIESAT-1 28 Feb 03:01:21 03:04:33 49° 66° (ENE) 03:07:54 437.475
JAS-2 28 Feb 03:04:21 03:08:48 17° 84° (E) 03:13:48 435.910
RS-15 28 Feb 03:04:22 03:14:30 39° 338° (NNW) 03:24:51 29.354- 29.394
BEESAT 2 28 Feb 03:05:37 03:09:39 48° 239° (WSW) 03:13:37 435.950
HORYU 2 28 Feb 03:07:43 03:11:38 30° 95° (E) 03:15:35 437.375
STARS 28 Feb 03:08:00 03:11:50 27° 266° (W) 03:15:37 437.465
SO-50 28 Feb 03:16:00 03:20:39 70° 311° (NW) 03:25:28 436.795
AO-7 28 Feb 03:27:53 03:35:01 32° 93° (E) 03:42:18 29.400- 29.500
ITAMSAT 1 28 Feb 03:34:10 03:39:04 40° 293° (WNW) 03:43:53 435.822/435.867
MOZHAYETS 4 28 Feb 03:43:48 03:48:17 60° 72° (ENE) 03:52:48
Oscar 19 28 Feb 03:44:04 03:46:50 14° 304° (NW) 03:49:25 437.125/150
CUBESAT XI-V 28 Feb 04:01:48 04:02:26 10° 55° (NE) 04:03:17 437.345
PCSat 28 Feb 04:06:45 04:10:28 19° 30° (NNE) 04:14:17 145.827
PRISM 28 Feb 04:21:49 04:24:06 15° 60° (ENE) 04:26:32 437.425
AIST 2 28 Feb 04:25:18 04:28:39 22° 245° (WSW) 04:31:52 435.215
Gurwin Techsat 1B 28 Feb 04:29:30 04:33:25 21° 301° (WNW) 04:37:12 435.225
STRAND 1 28 Feb 04:32:40 04:35:38 16° 57° (ENE) 04:38:47 437.568
YUBILEINY 28 Feb 04:33:05 04:41:32 51° 271° (W) 04:49:53 435.215
M-CUBED/EXP-1 PRIME 28 Feb 04:34:09 04:35:26 12° 266° (W) 04:36:35 437.505
AUBIESAT-1 28 Feb 04:38:37 04:39:54 12° 266° (W) 04:41:03 437.475
HORYU 2 28 Feb 04:44:21 04:48:20 32° 293° (WNW) 04:52:15 437.375
JAS-2 28 Feb 04:47:42 04:54:56 78° 103° (ESE) 05:02:45 435.910
SO-50 28 Feb 04:58:40 05:02:06 19° 333° (NNW) 05:05:31 436.795
Cubesat XI-IV 28 Feb 05:01:15 05:02:50 11° 83° (E) 05:04:43 437.490
CUTE-I 28 Feb 05:10:16 05:12:53 14° 85° (E) 05:15:45 437.470
AO-7 28 Feb 05:20:16 05:28:30 68° 295° (WNW) 05:36:40 29.400- 29.500
RS-15 28 Feb 05:20:41 05:30:34 35° 12° (NNE) 05:40:53 29.354- 29.394
MOZHAYETS 4 28 Feb 05:22:56 05:25:59 17° 272° (W) 05:28:54
CUBESAT XI-V 28 Feb 05:34:24 05:39:03 66° 73° (ENE) 05:43:45 437.345
PCSat 28 Feb 05:49:32 05:54:58 67° 52° (NE) 06:00:23 145.827
PRISM 28 Feb 05:55:02 05:59:09 67° 258° (WSW) 06:03:20 437.425
STRAND 1 28 Feb 06:09:03 06:14:12 89° 249° (WSW) 06:19:25 437.568
JAS-2 28 Feb 06:33:36 06:39:29 28° 301° (WNW) 06:45:34 435.910
Cubesat XI-IV 28 Feb 06:38:34 06:43:59 77° 103° (ESE) 06:49:22 437.490
SO-50 28 Feb 06:43:18 06:44:33 11° 357° (N) 06:45:47 436.795
CUTE-I 28 Feb 06:48:25 06:53:50 90° 301° (WNW) 06:59:13 437.470
GONETS M04 28 Feb 06:49:20 06:53:39 15° 47° (NE) 06:58:26
AIST 1 28 Feb 07:07:37 07:11:40 39° 93° (E) 07:15:48
CUBESAT XI-V 28 Feb 07:14:03 07:17:03 16° 273° (W) 07:19:53 437.345
AO-7 28 Feb 07:14:17 07:19:59 20° 316° (NW) 07:25:25 29.400- 29.500
PCSat 28 Feb 07:33:48 07:37:58 22° 251° (WSW) 07:41:58 145.827
RS-15 28 Feb 07:34:24 07:45:37 64° 42° (NE) 07:57:23 29.354- 29.394
HO-68 28 Feb 07:44:11 07:49:08 20° 87° (E) 07:54:23 435.675
STRAND 1 28 Feb 07:51:47 07:54:16 13° 275° (W) 07:56:30 437.568
COMPASS 1 28 Feb 08:01:00 08:02:11 11° 86° (E) 08:03:35 437.405
BRITE-PL 28 Feb 08:18:16 08:22:42 39° 95° (E) 08:26:50 437.365/2234.400
Cubesat XI-IV 28 Feb 08:19:45 08:23:33 19° 302° (WNW) 08:27:11 437.490
CANX-2 28 Feb 08:21:11 08:24:51 28° 94° (E) 08:28:33 2200.000
SEEDS 28 Feb 08:22:34 08:25:54 23° 92° (E) 08:29:18 437.485
SO-50 28 Feb 08:24:09 08:27:07 16° 22° (NNE) 08:30:10 436.795
CUTE-I 28 Feb 08:29:53 08:33:16 17° 304° (WNW) 08:36:27 437.470
GOMX 1 28 Feb 08:37:03 08:41:18 39° 96° (E) 08:45:20 467.674
DUCHIFAT 1 28 Feb 08:39:17 08:40:16 11° 58° (ENE) 08:41:27 145.980
CUTE 1.7 + AOD 2 28 Feb 08:40:00 08:44:00 39° 97° (E) 08:48:01 437.475
GONETS M04 28 Feb 08:44:24 08:53:00 58° 74° (ENE) 09:01:39
AIST 1 28 Feb 08:46:02 08:49:32 23° 292° (WNW) 08:53:00
POLYITAN 1 28 Feb 08:54:35 08:57:06 16° 61° (ENE) 08:59:44 437.675
CUBEBUG 2 28 Feb 08:55:47 08:57:45 13° 87° (E) 08:59:54 437.445
POPSAT HIP 1 28 Feb 08:56:26 08:59:00 16° 61° (ENE) 09:01:43 437.405
UNISAT 6 28 Feb 08:59:28 09:03:11 28° 67° (ENE) 09:06:56 437.425
Oscar 11 28 Feb 09:06:51 09:10:22 24° 93° (E) 09:13:56 145.826/435.025
NANOSAT C BR1 28 Feb 09:19:36 09:23:06 25° 66° (ENE) 09:26:40 145.865
DELFI C3 28 Feb 09:22:41 09:26:11 27° 94° (E) 09:29:43 145.870
DOVE 4 28 Feb 09:24:36 09:29:02 83° 103° (ESE) 09:33:14 437.250
TIGRISAT 28 Feb 09:25:19 09:29:33 47° 71° (ENE) 09:33:44 435.000
DX 1 28 Feb 09:26:45 09:29:50 19° 91° (E) 09:33:03 434.975-435.025
HO-68 28 Feb 09:30:39 09:37:53 87° 288° (WNW) 09:45:06 435.675
AAUSAT CUBESAT 2 28 Feb 09:33:53 09:38:05 90° 217° (SW) 09:42:17 437.432
COMPASS 1 28 Feb 09:34:20 09:38:32 79° 285° (WNW) 09:42:44 437.405
ANTELSAT 28 Feb 09:37:14 09:41:36 64° 74° (ENE) 09:45:56 437.575/2403.000
FUNcube-1 28 Feb 09:45:48 09:49:28 29° 95° (E) 09:53:08 145.935
ZACube-1 28 Feb 09:46:02 09:49:43 30° 95° (E) 09:53:25 437.345
RS-15 28 Feb 09:47:09 09:57:55 49° 246° (WSW) 10:09:00 29.354- 29.394
QB50P1 28 Feb 09:50:57 09:55:06 51° 71° (ENE) 09:59:17 145.935-145.965
CINEMA 3 28 Feb 09:52:25 09:56:42 89° 115° (ESE) 10:00:50 145.822/145.860
QB50P2 28 Feb 09:53:47 09:57:58 55° 72° (ENE) 10:02:11 145.880/145.840
CANX-2 28 Feb 09:57:02 10:00:50 32° 292° (WNW) 10:04:35 2200.000
BRITE-PL 28 Feb 09:57:06 10:01:05 26° 296° (WNW) 10:04:46 437.365/2234.400
SEEDS 28 Feb 09:57:57 10:01:54 38° 290° (WNW) 10:05:48 437.485
UWE-3 28 Feb 09:58:57 10:03:01 49° 100° (E) 10:07:03 435.000/436.395/437.385
UKube-1 28 Feb 09:59:06 10:03:10 37° 98° (E) 10:07:13 .
O/OREOS (USA 219) 28 Feb 10:03:17 10:07:49 71° 114° (ESE) 10:12:25 437.305
SO-50 28 Feb 10:04:04 10:08:51 48° 44° (NE) 10:13:39 436.795
HUMSAT D 28 Feb 10:10:21 10:13:58 29° 95° (E) 10:17:36 437.325/437.525
DUCHIFAT 1 28 Feb 10:11:10 10:15:28 80° 75° (ENE) 10:19:46 145.980
BUGSAT 1 28 Feb 10:15:09 10:19:24 69° 74° (ENE) 10:23:41 437.445
GOMX 1 28 Feb 10:15:34 10:19:16 24° 296° (WNW) 10:22:43 467.674
CUTE 1.7 + AOD 2 28 Feb 10:16:21 10:19:46 23° 294° (WNW) 10:23:05 437.475
ISS 28 Feb 10:18:41 10:21:40 36° 146° (SE) 10:24:41 145.825
POLYITAN 1 28 Feb 10:28:18 10:32:35 67° 258° (WSW) 10:36:53 437.675
POPSAT HIP 1 28 Feb 10:30:12 10:34:29 65° 258° (WSW) 10:38:46 437.405
CUBEBUG 2 28 Feb 10:30:52 10:35:01 64° 287° (WNW) 10:39:07 437.445
CUSAT 1 28 Feb 10:32:28 10:34:36 20° 68° (ENE) 10:36:38 437.405
50 SAT 28 Feb 10:34:50 10:38:31 37° 97° (E) 10:42:13 437.505
UNISAT 6 28 Feb 10:35:53 10:39:56 34° 264° (W) 10:43:55 437.425
GONETS M04 28 Feb 10:41:46 10:49:33 37° 275° (W) 10:57:12
Oscar 11 28 Feb 10:42:40 10:46:42 38° 291° (WNW) 10:50:40 145.826/435.025
AISAT 28 Feb 10:53:10 10:57:36 61° 101° (E) 11:01:59 437.250
NANOSAT C BR1 28 Feb 10:54:51 10:58:51 36° 263° (W) 11:02:50 145.865
DELFI C3 28 Feb 10:57:48 11:01:25 30° 292° (WNW) 11:04:59 145.870
DX 1 28 Feb 11:02:10 11:06:25 49° 290° (WNW) 11:10:38 434.975-435.025
TIGRISAT 28 Feb 11:03:18 11:06:36 20° 269° (W) 11:09:45 435.000
VELOX 1 28 Feb 11:03:57 11:08:27 76° 103° (ESE) 11:12:53 145.980
DOVE 4 28 Feb 11:04:11 11:06:11 13° 302° (WNW) 11:07:59 437.250
CUBEBUG 1 28 Feb 11:06:00 11:10:08 37° 97° (E) 11:14:14 437.445
ESTCUBE 1 28 Feb 11:09:38 11:14:01 44° 98° (E) 11:18:23 437.505/2401.250
AAUSAT CUBESAT 2 28 Feb 11:11:40 11:13:09 11° 301° (WNW) 11:14:28 437.432
COMPASS 1 28 Feb 11:12:59 11:13:35 10° 302° (WNW) 11:14:00 437.405
ANTELSAT 28 Feb 11:16:18 11:18:54 15° 272° (W) 11:21:19 437.575/2403.000
HO-68 28 Feb 11:19:27 11:24:48 22° 308° (NW) 11:29:57 435.675
FUNcube-1 28 Feb 11:22:12 11:25:48 28° 293° (WNW) 11:29:21 145.935
ZACube-1 28 Feb 11:22:30 11:26:05 28° 293° (WNW) 11:29:36 437.345
QB50P1 28 Feb 11:28:18 11:31:20 18° 270° (W) 11:34:14 145.935-145.965
DANDE 28 Feb 11:29:51 11:32:48 77° 260° (W) 11:35:25 436.750
QB50P2 28 Feb 11:31:27 11:34:17 17° 271° (W) 11:37:00 145.880/145.840
CINEMA 3 28 Feb 11:31:47 11:33:17 11° 302° (WNW) 11:34:36 145.822/145.860
UKube-1 28 Feb 11:35:33 11:39:11 26° 295° (WNW) 11:42:45 .
UWE-3 28 Feb 11:36:20 11:39:16 18° 297° (WNW) 11:42:04 435.000/436.395/437.385
ITAMSAT 1 28 Feb 11:40:36 11:42:31 12° 53° (NE) 11:44:38 435.822/435.867
O/OREOS (USA 219) 28 Feb 11:44:31 11:47:48 19° 314° (NW) 11:51:01 437.305
SO-50 28 Feb 11:44:55 11:49:17 31° 243° (WSW) 11:53:34 436.795
Oscar 19 28 Feb 11:44:58 11:49:23 31° 64° (ENE) 11:53:53 437.125/150
HUMSAT D 28 Feb 11:46:10 11:49:44 28° 293° (WNW) 11:53:14 437.325/437.525
SPROUT 28 Feb 11:48:38 11:52:21 28° 94° (E) 11:56:05 437.525
DUCHIFAT 1 28 Feb 11:50:25 11:51:58 11° 274° (W) 11:53:17 145.980
BUGSAT 1 28 Feb 11:53:11 11:55:26 14° 273° (W) 11:57:30 437.445
ISS 28 Feb 11:54:51 11:58:02 56° 344° (NNW) 12:01:14 145.825
TISAT 1 28 Feb 12:01:44 12:05:35 33° 96° (E) 12:09:27 437.305
50 SAT 28 Feb 12:10:19 12:13:22 21° 295° (WNW) 12:16:21 437.505
CUSAT 1 28 Feb 12:16:15 12:17:16 11° 270° (W) 12:18:09 437.405
AISAT 28 Feb 12:30:46 12:33:50 18° 299° (WNW) 12:36:45 437.250
Gurwin Techsat 1B 28 Feb 12:34:43 12:38:54 25° 62° (ENE) 12:43:12 435.225
ITUPSAT 1 28 Feb 12:39:53 12:42:42 16° 88° (E) 12:45:42 437.325
VELOX 1 28 Feb 12:41:55 12:44:31 15° 301° (WNW) 12:46:58 145.980
AO-7 28 Feb 12:42:06 12:47:03 18° 41° (NE) 12:52:16 29.400- 29.500
CUBEBUG 1 28 Feb 12:42:39 12:46:23 26° 295° (WNW) 12:50:02 437.445
ESTCUBE 1 28 Feb 12:47:00 12:50:42 24° 296° (WNW) 12:54:16 437.505/2401.250
ITAMSAT 1 28 Feb 13:15:58 13:21:08 67° 72° (ENE) 13:26:22 435.822/435.867
Oscar 19 28 Feb 13:23:46 13:28:38 41° 263° (W) 13:33:30 437.125/150
SPROUT 28 Feb 13:24:37 13:28:30 32° 292° (WNW) 13:32:18 437.525
ISS 28 Feb 13:31:43 13:34:49 40° 5° (N) 13:37:54 145.825
TISAT 1 28 Feb 13:37:43 13:41:19 27° 294° (WNW) 13:44:50 437.305
SWISSCUBE 28 Feb 13:41:27 13:46:15 62° 102° (ESE) 13:51:01 437.505
BEESAT 28 Feb 13:50:33 13:55:22 70° 103° (ESE) 14:00:10 436.000
HORYU 2 28 Feb 14:09:19 14:13:30 43° 69° (ENE) 14:17:43 437.375
Gurwin Techsat 1B 28 Feb 14:13:21 14:18:34 56° 260° (W) 14:23:50 435.225
ITUPSAT 1 28 Feb 14:16:21 14:21:12 71° 287° (WNW) 14:26:00 437.325
AO-7 28 Feb 14:30:13 14:38:19 59° 63° (ENE) 14:46:28 29.400- 29.500
KKS-1 28 Feb 14:41:44 14:46:03 48° 99° (E) 14:50:21 437.445
STARS 28 Feb 14:53:48 14:57:59 42° 98° (E) 15:02:10 437.465
ITAMSAT 1 28 Feb 14:57:30 15:01:13 19° 271° (W) 15:04:47 435.822/435.867
JAS-2 28 Feb 15:04:20 15:09:33 46° 66° (ENE) 15:15:26 435.910
ISS 28 Feb 15:08:13 15:11:28 88° 21° (NNE) 15:14:44 145.825
SWISSCUBE 28 Feb 15:20:13 15:23:43 20° 299° (WNW) 15:27:06 437.505
BEESAT 28 Feb 15:29:30 15:32:45 18° 300° (WNW) 15:35:52 436.000
MOZHAYETS 4 28 Feb 15:37:47 15:39:11 11° 85° (E) 15:40:50
YUBILEINY 28 Feb 15:41:39 15:49:36 43° 87° (E) 15:57:44 435.215
HORYU 2 28 Feb 15:46:51 15:50:24 22° 268° (W) 15:53:51 437.375
ITUPSAT 1 28 Feb 15:56:36 15:58:19 12° 305° (NW) 15:59:49 437.325
M-CUBED/EXP-1 PRIME 28 Feb 16:09:17 16:12:47 26° 101° (E) 16:16:34 437.505
AUBIESAT-1 28 Feb 16:13:18 16:16:47 26° 101° (E) 16:20:34 437.475
KKS-1 28 Feb 16:19:00 16:22:26 22° 297° (WNW) 16:25:45 437.445
AO-7 28 Feb 16:23:51 16:31:32 38° 264° (W) 16:39:06 29.400- 29.500
Cubesat XI-IV 28 Feb 16:25:15 16:29:45 29° 63° (ENE) 16:34:20 437.490
STARS 28 Feb 16:30:44 16:34:16 23° 296° (WNW) 16:37:42 437.465
CUTE-I 28 Feb 16:34:40 16:39:23 33° 64° (ENE) 16:44:11 437.470
ISS 28 Feb 16:45:14 16:47:35 18° 221° (SW) 16:49:53 145.825
JAS-2 28 Feb 16:50:09 16:55:00 30° 269° (W) 17:00:15 435.910
BEESAT 2 28 Feb 17:04:58 17:07:04 14° 111° (ESE) 17:09:20 435.950
AIST 1 28 Feb 17:12:04 17:14:46 16° 64° (ENE) 17:17:36
MOZHAYETS 4 28 Feb 17:12:31 17:17:11 89° 284° (WNW) 17:21:51
CUBESAT XI-V 28 Feb 17:29:28 17:31:42 14° 86° (E) 17:34:10 437.345
PRISM 28 Feb 17:35:50 17:37:58 14° 88° (E) 17:40:16 437.425
YUBILEINY 28 Feb 17:37:55 17:46:22 50° 289° (WNW) 17:54:53 435.215
M-CUBED/EXP-1 PRIME 28 Feb 17:44:01 17:47:46 36° 296° (WNW) 17:51:47 437.505
AUBIESAT-1 28 Feb 17:47:57 17:51:44 36° 296° (WNW) 17:55:44 437.475
BRITE-PL 28 Feb 17:56:33 17:58:56 13° 56° (ENE) 18:01:29 437.365/2234.400
Cubesat XI-IV 28 Feb 18:04:27 18:09:39 49° 261° (W) 18:14:53 437.490
GOMX 1 28 Feb 18:13:32 18:15:21 12° 57° (ENE) 18:17:23 467.674
CUTE-I 28 Feb 18:14:19 18:19:24 41° 263° (W) 18:24:28 437.470
STRAND 1 28 Feb 18:16:46 18:20:53 24° 92° (E) 18:25:05 437.568
HO-68 28 Feb 18:16:58 18:22:24 25° 53° (NE) 18:28:00 435.675
BEESAT 3 28 Feb 18:17:37 18:21:44 77° 126° (SE) 18:25:54 437.485
AIST 2 28 Feb 18:25:45 18:29:37 34° 119° (ESE) 18:33:33 435.215
O/OREOS (USA 219) 28 Feb 18:30:55 18:35:06 33° 54° (NE) 18:39:16 437.305
BEESAT 2 28 Feb 18:40:36 18:44:45 76° 309° (NW) 18:48:57 435.950
AIST 1 28 Feb 18:48:33 18:52:56 61° 265° (W) 18:57:16
MOZHAYETS 4 28 Feb 18:51:31 18:53:48 13° 302° (WNW) 18:55:55
AAUSAT CUBESAT 2 28 Feb 18:55:42 18:57:08 12° 59° (ENE) 18:58:45 437.432
COMPASS 1 28 Feb 18:55:54 18:57:52 13° 61° (ENE) 19:00:00 437.405
DOVE 4 28 Feb 18:57:06 19:00:34 19° 62° (ENE) 19:04:03 437.250
PHONESAT 2.4 28 Feb 19:03:53 19:05:17 12° 156° (SSE) 19:06:46 2401.200-2431.200
CUBESAT XI-V 28 Feb 19:05:05 19:09:51 79° 284° (WNW) 19:14:34 437.345
PRISM 28 Feb 19:09:46 19:13:59 65° 287° (WNW) 19:18:10 437.425
VERMONT LUNAR 28 Feb 19:14:32 19:16:59 18° 164° (SSE) 19:19:27 437.305
CANX-2 28 Feb 19:17:37 19:21:20 31° 68° (ENE) 19:25:06 2200.000
SEEDS 28 Feb 19:18:17 19:21:42 25° 66° (ENE) 19:25:11 437.485
CINEMA 3 28 Feb 19:22:02 19:25:01 17° 62° (ENE) 19:28:04 145.822/145.860
BRITE-PL 28 Feb 19:31:03 19:36:39 69° 74° (ENE) 19:42:04 437.365/2234.400
CUTE 1.7 + AOD 2 28 Feb 19:36:14 19:40:13 44° 71° (ENE) 19:44:15 437.475
YUBILEINY 28 Feb 19:42:18 19:46:05 13° 317° (NW) 19:49:24 435.215
GOMX 1 28 Feb 19:47:22 19:52:44 67° 73° (ENE) 19:57:51 467.674
STRAND 1 28 Feb 19:55:24 20:00:25 51° 291° (WNW) 20:05:23 437.568
CUBEBUG 2 28 Feb 19:57:03 20:00:18 20° 64° (ENE) 20:03:33 437.445
BEESAT 3 28 Feb 19:57:12 20:00:20 20° 326° (NNW) 20:03:27 437.485
GONETS M04 28 Feb 20:00:19 20:02:48 12° 71° (ENE) 20:05:55
HO-68 28 Feb 20:02:16 20:09:26 84° 253° (WSW) 20:16:40 435.675
AIST 2 28 Feb 20:04:15 20:08:14 35° 318° (NW) 20:12:14 435.215
Oscar 11 28 Feb 20:05:00 20:08:42 29° 67° (ENE) 20:12:28 145.826/435.025
O/OREOS (USA 219) 28 Feb 20:10:22 20:14:32 33° 254° (WSW) 20:18:37 437.305
DELFI C3 28 Feb 20:14:11 20:17:36 27° 67° (ENE) 20:21:05 145.870
BEESAT 2 28 Feb 20:20:54 20:23:39 17° 330° (NNW) 20:26:22 435.950
AISAT 28 Feb 20:21:08 20:22:48 12° 57° (ENE) 20:24:40 437.250
DX 1 28 Feb 20:25:32 20:29:11 27° 65° (ENE) 20:32:56 434.975-435.025
AAUSAT CUBESAT 2 28 Feb 20:28:04 20:32:13 86° 255° (WSW) 20:36:24 437.432
COMPASS 1 28 Feb 20:28:56 20:33:06 74° 259° (WSW) 20:37:16 437.405
VELOX 1 28 Feb 20:30:57 20:33:18 15° 59° (ENE) 20:35:48 145.980
DOVE 4 28 Feb 20:32:46 20:37:57 69° 258° (WSW) 20:42:53 437.250
PCSat 28 Feb 20:35:14 20:39:48 29° 111° (ESE) 20:44:30 145.827
PHONESAT 2.4 28 Feb 20:40:05 20:43:03 24° 172° (S) 20:46:02 2401.200-2431.200
CUBESAT XI-V 28 Feb 20:44:36 20:46:35 12° 303° (WNW) 20:48:21 437.345
